Regional Weather Roundup
Issued by NWS

Home | Current Version | Previous Version | Graphics & Text | Print | Product List | Glossary Off
Versions: 1 2 3 4 5 6 7 8 9 10 11 12 13 14 15 16 17 18 19 20 21 22 23 24 25 26 27 28 29 30 31 32 33 34 35 36 37 38 39 40 41 42 43 44 45 46 47 48 49 50

000
ASUS43 KFSD 271510
RWRSD

WEATHER ROUNDUP FOR SOUTH DAKOTA
NATIONAL WEATHER SERVICE SIOUX FALLS SD
1000 AM CDT WED MAY 27 2015

NOTE: "FAIR" INDICATES FEW OR NO CLOUDS BELOW 12,000 FEET WITH NO
SIGNIFICANT WEATHER AND/OR OBSTRUCTIONS TO VISIBILITY.


SDZ001>005-009-010-012>017-271600-
NORTHWEST AND NORTH CENTRAL SOUTH DAKOTA

CITY           SKY/WX    TMP DP  RH WIND       PRES   REMARKS
BUFFALO          N/A     66  53  63 SE7       29.90F
FAITH            N/A     67  51  56 S15       29.98S
MOBRIDGE       SUNNY     68  54  60 S5        29.97R
$$

SDZ012>016-024>037-041>051-057-063-072>074-271600-
SOUTHWEST AND SOUTH CENTRAL SOUTH DAKOTA

CITY           SKY/WX    TMP DP  RH WIND       PRES   REMARKS
RAPID CTY ARPT CLOUDY    60  54  80 S9        30.00S
PIERRE         SUNNY     68  51  54 SW7       29.99S
CUSTER         PTSUNNY   55  49  80 CALM      30.07S
ELLSWORTH AFB  CLOUDY    60  55  84 S10       29.99S
PHILIP         PTSUNNY   67  55  65 VRB3      30.00S
PINE RIDGE     CLOUDY    58  53  84 SE9       30.03S
SPEARFISH      FAIR      63  50  63 CALM      30.01S
WINNER         FAIR      73  50  44 SW12      30.04R
$$

SDZ004>011-016>023-039-040-271600-
NORTHEAST SOUTH DAKOTA

CITY           SKY/WX    TMP DP  RH WIND       PRES   REMARKS
ABERDEEN       SUNNY     76  55  48 NW7       29.97S
WATERTOWN      SUNNY     73  51  46 NW13      29.98S
BROOKINGS      SUNNY     70  54  56 NW8       30.00R
SISSETON         N/A     73  51  46 N13       29.94R
$$

SDZ017-020-022-023-036>040-048>070-271600-
SOUTHEAST SOUTH DAKOTA

CITY           SKY/WX    TMP DP  RH WIND       PRES   REMARKS
SIOUX FALLS    MOSUNNY   73  53  49 NW10      30.00S
HURON          SUNNY     71  52  50 VRB3      30.00R
CHAMBERLAIN    SUNNY     66  53  63 W5        30.03S
MITCHELL       SUNNY     72  53  51 W7        30.01S
YANKTON        SUNNY     70  54  56 W6        30.02S
$$

ABBREVIATIONS USED IN REMARKS
   TC - TEMPERATURE IN CELSIUS
  WCI - WIND CHILL INDEX
   HX - HEAT INDEX
  VSB - VISIBILITY



USA.gov is the U.S. government's official web portal to all federal, state and local government web resources and services.